Location: Eschertshofen
(49.3064°N, 11.5756°E)
Time: 22:36:16
(UTC+00:00)

USA 186 - Pass Details

Date: 18 September 2020
Orbit: 261 x 425 km, 96.9° (Epoch: 12 October)

Event Time Altitude Azimuth Distance (km) Brightness Sun altitude
Exits shadow 18:49:23 14° 174° (S) 1,249 3.9 -15.1°
Maximum altitude 18:52:01 73° 259° (WSW) 433 1.9 -15.5°
Drops below altitude 10° 18:55:15 10° 344° (NNW) 1,513 5.1 -16.0°
Sets 18:57:19 0° 347° (NNW) 2,398 6.1 -16.3°
